User: anonymous   Login
Location: Unspecified
(0.0000°N, 0.0000°E)
Time: 18:30:49
(UTC+00:00)
Language:

KAITUO 1B - Orbit

View from above orbital plane
View from above orbital plane
View from above satellite
View from above satellite

Ground track
Ground track

The orbit data is extracted from the following two-line orbital elements,

1 40912U 15049P   18052.77687763  .00001270  00000-0  64739-4 0  9995
2 40912  97.4514  61.7530 0017073  56.6730  28.7660 15.18458264134152
Epoch (UTC): 21 February 2018 18:38:42
Eccentricity: 0.0017073
inclination: 97.4514°
perigee height: 499 km
apogee height: 522 km
right ascension of ascending node: 61.7530°
argument of perigee: 56.6730°
revolutions per day: 15.18458264
mean anomaly at epoch: 28.7660°
orbit number at epoch: 13415

The dashed part of the orbit path shows where the satellite is in the earth's shadow,  

DLR